Flag for United Kingdom Weather past 2 weeks in Londonderry, Northern Ireland, United Kingdom

Now
55 °F

More clouds than sun.


Feels Like: 51 °F
Forecast: 40 / 63 °F
Wind: 20 mph from West

Location: Eglinton / Londonderry

Current Time: May 22, 2015 at 9:46:10 AM

Latest Report: May 22, 2015 at 8:50 AM


Visibility: N/A

Pressure: 30.18 "Hg

Humidity: 88%

Dew point: 52 °F

Location of LondonderryLocation

Historic Weather in Londonderry — Graph

°F

Londonderry temperature yesterday

Maximum temperature yesterday: 59 °F (at 3:50 PM)
Minimum temperature yesterday: 48 °F (at 5:50 AM)
Average temperature yesterday: 54 °F

Past Weeks' High & Low Weather Summary

 TemperatureHumidityPressure
High61 °F (May 10, 10:20 AM)94% (May 15, 2:20 PM)30.21 "Hg (May 15, 2:20 PM)
Low39 °F (May 13, 6:20 AM)42% (May 11, 2:50 PM)29.42 "Hg (May 18, 2:50 PM)
Average52 °F75%29.89 "Hg
* Reported May 7 8:20 AM — May 22 8:20 AM, Londonderry, Weather by CustomWeather, © 2015

Note: Actual official high and low records may vary slightly from our data, if they occured in-between our weather recording intervals... More about our weather records

Advertising

Londonderry weather history for previous 24 hours

 ConditionsComfort  
Time TempWeatherWind HumidityBarometerVisibility
8:20 AM
Fri, May 22
55 °FScattered showers. Broken clouds.14 mph88%30.18 "Hg6 mi
7:50 AM55 °FBroken clouds.16 mph88%30.18 "HgN/A
4:50 PM
Thu, May 21
59 °FPartly sunny.18 mph77%30.18 "HgN/A
4:20 PM59 °FOvercast.20 mph77%30.18 "HgN/A
3:50 PM59 °FPartly sunny.21 mph77%30.18 "HgN/A
3:20 PM57 °FPartly sunny.18 mph82%30.18 "HgN/A
2:50 PM57 °FPartly sunny.20 mph82%30.18 "HgN/A
2:20 PM57 °FPartly sunny.20 mph77%30.18 "HgN/A
1:50 PM55 °FPartly sunny.20 mph82%30.18 "HgN/A
1:20 PM55 °FPartly sunny.16 mph82%30.18 "HgN/A
12:50 PM55 °FScattered showers. Broken clouds.17 mph77%30.18 "HgN/A
12:20 PM55 °FBroken clouds.18 mph77%30.18 "HgN/A
11:50 AM55 °FBroken clouds.16 mph72%30.18 "HgN/A
11:20 AM55 °FPassing clouds.17 mph72%30.18 "HgN/A
10:50 AM55 °FPassing clouds.16 mph72%30.18 "HgN/A
10:20 AM54 °FPassing clouds.17 mph72%30.18 "HgN/A
9:50 AM55 °FScattered clouds.18 mph72%30.18 "HgN/A
9:20 AM54 °FScattered clouds.18 mph72%30.18 "HgN/A
Weather by CustomWeather, © 2015

See weather overviewHow to use our weather pages